| time (UTC) | temp C | wind direction | speed KPH | gust KPH | rain 1hr cm | rain 24hr cm | rain mn cm | humidity % | barometer mb |
| 20260505041707 | 13 | 199 | 3.2 | 6.4 | 0.00 | 0.00 | 0.00 | 62 | 1010.0 |
| 20260505041205 | 13 | 194 | 3.2 | 8.0 | 0.00 | 0.00 | 0.00 | 61 | 1010.0 |
| 20260505040703 | 13 | 205 | 3.2 | 8.0 | 0.00 | 0.00 | 0.00 | 61 | 1010.1 |
| 20260505040203 | 13 | 237 | 3.2 | 8.0 | 0.00 | 0.00 | 0.00 | 61 | 1010.0 |
| 20260505035925 | 13 | 203 | 3.2 | 9.7 | 0.00 | 0.00 | 0.00 | 60 | 1010.0 |
| 20260505035416 | 13 | 209 | 4.8 | 9.7 | 0.00 | 0.00 | 0.00 | 60 | 1009.9 |
| 20260505034645 | 13 | 208 | 4.8 | 11.3 | 0.00 | 0.00 | 0.00 | 59 | 1009.9 |
| 20260505034143 | 13 | 187 | 4.8 | 11.3 | 0.00 | 0.00 | 0.00 | 59 | 1009.9 |
| 20260505033643 | 13 | 203 | 4.8 | 9.7 | 0.00 | 0.00 | 0.00 | 59 | 1009.9 |
| 20260505033143 | 13 | 212 | 4.8 | 11.3 | 0.00 | 0.00 | 0.00 | 58 | 1009.9 |
| 20260505032641 | 13 | 204 | 4.8 | 11.3 | 0.00 | 0.00 | 0.00 | 58 | 1009.8 |
| 20260505032142 | 13 | 205 | 4.8 | 12.9 | 0.00 | 0.00 | 0.00 | 57 | 1009.8 |
| 20260505031643 | 13 | 218 | 6.4 | 12.9 | 0.00 | 0.00 | 0.00 | 57 | 1009.8 |
| 20260505031141 | 13 | 219 | 4.8 | 12.9 | 0.00 | 0.00 | 0.00 | 56 | 1009.8 |
| 20260505031129 | 14 | 272 | 4.8 | 12.9 | 0.00 | 0.00 | 0.00 | 56 | 1009.8 |
| 20260505030734 | 14 | 209 | 4.8 | 11.3 | 0.00 | 0.00 | 0.00 | 56 | 1009.8 |
| 20260505025619 | 14 | 212 | 4.8 | 12.9 | 0.00 | 0.00 | 0.00 | 55 | 1009.9 |
| 20260505025350 | 14 | 200 | 3.2 | 9.7 | 0.00 | 0.00 | 0.00 | 54 | 1009.9 |
| 20260505024601 | 14 | 209 | 3.2 | 9.7 | 0.00 | 0.00 | 0.00 | 54 | 1009.9 |
| 20260505024101 | 14 | 205 | 4.8 | 9.7 | 0.00 | 0.00 | 0.00 | 53 | 1009.9 |
| 20260505023829 | 14 | 208 | 3.2 | 14.5 | 0.00 | 0.00 | 0.00 | 53 | 1009.9 |
| 20260505023059 | 14 | 220 | 4.8 | 14.5 | 0.00 | 0.00 | 0.00 | 52 | 1009.9 |
| 20260505022559 | 15 | 204 | 3.2 | 11.3 | 0.00 | 0.00 | 0.00 | 52 | 1010.0 |
| 20260505022328 | 15 | 205 | 3.2 | 11.3 | 0.00 | 0.00 | 0.00 | 52 | 1010.0 |
| 20260505021826 | 15 | 206 | 4.8 | 9.7 | 0.00 | 0.00 | 0.00 | 51 | 1010.0 |
| 20260505021055 | 15 | 210 | 4.8 | 12.9 | 0.00 | 0.00 | 0.00 | 51 | 1009.9 |
| 20260505020555 | 15 | 203 | 4.8 | 12.9 | 0.00 | 0.00 | 0.00 | 50 | 1009.9 |
| 20260505020324 | 15 | 208 | 3.2 | 9.7 | 0.00 | 0.00 | 0.00 | 50 | 1009.9 |
| 20260505015547 | 15 | 237 | 4.8 | 11.3 | 0.00 | 0.00 | 0.00 | 50 | 1009.8 |
| 20260505015045 | 15 | 210 | 4.8 | 11.3 | 0.00 | 0.00 | 0.00 | 49 | 1009.8 |
| 20260505014801 | 15 | 207 | 4.8 | 9.7 | 0.00 | 0.00 | 0.00 | 49 | 1009.8 |
| 20260505014031 | 15 | 216 | 3.2 | 9.7 | 0.00 | 0.00 | 0.00 | 49 | 1009.9 |
| 20260505013537 | 15 | 166 | 3.2 | 8.0 | 0.00 | 0.00 | 0.00 | 48 | 1009.7 |
| 20260505013533 | 15 | 206 | 3.2 | 8.0 | 0.00 | 0.00 | 0.00 | 48 | 1009.8 |
| 20260505013138 | 15 | 222 | 3.2 | 9.7 | 0.00 | 0.00 | 0.00 | 47 | 1009.6 |
| 20260505012034 | 16 | 182 | 3.2 | 9.7 | 0.00 | 0.00 | 0.00 | 47 | 1009.5 |
| 20260505012030 | 16 | 190 | 3.2 | 9.7 | 0.00 | 0.00 | 0.00 | 47 | 1009.4 |
| 20260505011027 | 16 | 209 | 4.8 | 14.5 | 0.00 | 0.00 | 0.00 | 47 | 1009.3 |
| 20260505010527 | 16 | 204 | 4.8 | 14.5 | 0.00 | 0.00 | 0.00 | 47 | 1009.3 |
| 20260505010027 | 16 | 208 | 4.8 | 9.7 | 0.00 | 0.00 | 0.00 | 46 | 1009.2 |
| 20260505005524 | 16 | 206 | 4.8 | 9.7 | 0.00 | 0.00 | 0.00 | 46 | 1009.1 |
| 20260505005027 | 16 | 197 | 4.8 | 9.7 | 0.00 | 0.00 | 0.00 | 45 | 1009.1 |
| 20260505004523 | 16 | 212 | 4.8 | 12.9 | 0.00 | 0.00 | 0.00 | 45 | 1008.9 |
| 20260505004023 | 16 | 207 | 4.8 | 12.9 | 0.00 | 0.00 | 0.00 | 45 | 1008.8 |
| 20260505003523 | 16 | 206 | 4.8 | 12.9 | 0.00 | 0.00 | 0.00 | 45 | 1008.7 |
| 20260505003023 | 17 | 210 | 4.8 | 12.9 | 0.00 | 0.00 | 0.00 | 45 | 1008.6 |
| 20260505002523 | 17 | 192 | 6.4 | 12.9 | 0.00 | 0.00 | 0.00 | 44 | 1008.4 |
| 20260505002023 | 17 | 206 | 4.8 | 11.3 | 0.00 | 0.00 | 0.00 | 44 | 1008.2 |
| 20260505001523 | 17 | 207 | 4.8 | 11.3 | 0.00 | 0.00 | 0.00 | 44 | 1008.1 |
| 20260505001023 | 17 | 211 | 4.8 | 11.3 | 0.00 | 0.00 | 0.00 | 44 | 1008.0 |
| 20260505000753 | 17 | 230 | 4.8 | 9.7 | 0.00 | 0.00 | 0.00 | 43 | 1007.9 |
| 20260505000023 | 17 | 204 | 4.8 | 12.9 | 0.00 | 0.00 | 0.00 | 43 | 1007.8 |
| 20260504235523 | 17 | 211 | 4.8 | 12.9 | 0.00 | 0.00 | 0.00 | 43 | 1007.6 |
| 20260504235020 | 17 | 208 | 6.4 | 14.5 | 0.00 | 0.00 | 0.00 | 43 | 1007.5 |
| 20260504234515 | 18 | 212 | 4.8 | 12.9 | 0.00 | 0.00 | 0.00 | 42 | 1007.4 |
| 20260504234015 | 18 | 316 | 6.4 | 12.9 | 0.00 | 0.00 | 0.00 | 42 | 1007.4 |
| 20260504233517 | 18 | 242 | 6.4 | 14.5 | 0.00 | 0.00 | 0.00 | 41 | 1007.4 |
| 20260504233014 | 18 | 203 | 6.4 | 14.5 | 0.00 | 0.00 | 0.00 | 41 | 1007.3 |
| 20260504232746 | 18 | 197 | 4.8 | 14.5 | 0.00 | 0.00 | 0.00 | 40 | 1007.2 |
| 20260504232247 | 18 | 251 | 4.8 | 9.7 | 0.00 | 0.00 | 0.00 | 39 | 1007.0 |
| 20260504231515 | 19 | 204 | 4.8 | 11.3 | 0.00 | 0.00 | 0.00 | 39 | 1006.9 |
| 20260504231014 | 19 | 228 | 6.4 | 16.1 | 0.00 | 0.00 | 0.00 | 38 | 1006.8 |
| 20260504230515 | 19 | 247 | 6.4 | 16.1 | 0.00 | 0.00 | 0.00 | 37 | 1006.7 |
| 20260504230015 | 19 | 176 | 6.4 | 14.5 | 0.00 | 0.00 | 0.00 | 37 | 1006.6 |
| 20260504225740 | 19 | 255 | 6.4 | 11.3 | 0.00 | 0.00 | 0.00 | 36 | 1006.4 |
| 20260504225009 | 20 | 198 | 4.8 | 12.9 | 0.00 | 0.00 | 0.00 | 36 | 1006.4 |
| 20260504224506 | 20 | 214 | 4.8 | 16.1 | 0.00 | 0.00 | 0.00 | 36 | 1006.3 |
| 20260504224005 | 20 | 203 | 6.4 | 16.1 | 0.00 | 0.00 | 0.00 | 34 | 1006.3 |
| 20260504223505 | 20 | 206 | 6.4 | 14.5 | 0.00 | 0.00 | 0.00 | 34 | 1006.2 |
| 20260504223005 | 21 | 248 | 4.8 | 12.9 | 0.00 | 0.00 | 0.00 | 32 | 1006.2 |
| 20260504222502 | 21 | 216 | 4.8 | 14.5 | 0.00 | 0.00 | 0.00 | 30 | 1006.1 |
| 20260504222003 | 21 | 222 | 4.8 | 14.5 | 0.00 | 0.00 | 0.00 | 30 | 1006.1 |
| 20260504221503 | 21 | 209 | 4.8 | 12.9 | 0.00 | 0.00 | 0.00 | 30 | 1006.1 |
| 20260504221003 | 21 | 239 | 3.2 | 12.9 | 0.00 | 0.00 | 0.00 | 30 | 1006.1 |
| 20260504220733 | 21 | 245 | 4.8 | 12.9 | 0.00 | 0.00 | 0.00 | 30 | 1006.1 |
| 20260504215957 | 21 | 215 | 4.8 | 12.9 | 0.00 | 0.00 | 0.00 | 29 | 1006.1 |
| 20260504215721 | 21 | 234 | 6.4 | 14.5 | 0.00 | 0.00 | 0.00 | 29 | 1006.1 |
| 20260504215329 | 21 | 197 | 3.2 | 14.5 | 0.00 | 0.00 | 0.00 | 30 | 1006.1 |
| 20260504215221 | 21 | 274 | 4.8 | 14.5 | 0.00 | 0.00 | 0.00 | 29 | 1006.2 |
| 20260504213951 | 21 | 213 | 3.2 | 9.7 | 0.00 | 0.00 | 0.00 | 29 | 1006.1 |
| 20260504213448 | 22 | 218 | 4.8 | 16.1 | 0.00 | 0.00 | 0.00 | 28 | 1006.1 |
| 20260504212949 | 22 | 230 | 4.8 | 16.1 | 0.00 | 0.00 | 0.00 | 28 | 1006.1 |
| 20260504212719 | 22 | 235 | 4.8 | 9.7 | 0.00 | 0.00 | 0.00 | 28 | 1006.2 |
| 20260504211947 | 22 | 216 | 4.8 | 16.1 | 0.00 | 0.00 | 0.00 | 28 | 1006.2 |
| 20260504211445 | 22 | 193 | 6.4 | 16.1 | 0.00 | 0.00 | 0.00 | 28 | 1006.1 |
| 20260504210941 | 22 | 227 | 6.4 | 19.3 | 0.00 | 0.00 | 0.00 | 28 | 1006.1 |
| 20260504210712 | 22 | 203 | 4.8 | 19.3 | 0.00 | 0.00 | 0.00 | 28 | 1006.1 |
| 20260504205941 | 22 | 262 | 4.8 | 16.1 | 0.00 | 0.00 | 0.00 | 28 | 1006.1 |
| 20260504205440 | 22 | 253 | 4.8 | 14.5 | 0.00 | 0.00 | 0.00 | 28 | 1006.0 |
| 20260504204942 | 22 | 227 | 4.8 | 14.5 | 0.00 | 0.00 | 0.00 | 28 | 1006.0 |
| 20260504204443 | 21 | 194 | 4.8 | 14.5 | 0.00 | 0.00 | 0.00 | 28 | 1006.1 |
| 20260504203943 | 22 | 233 | 4.8 | 19.3 | 0.00 | 0.00 | 0.00 | 28 | 1006.1 |
| 20260504203437 | 22 | 228 | 4.8 | 19.3 | 0.00 | 0.00 | 0.00 | 27 | 1006.2 |
| 20260504202924 | 22 | 270 | 3.2 | 14.5 | 0.00 | 0.00 | 0.00 | 27 | 1006.1 |
| 20260504202424 | 22 | 196 | 3.2 | 12.9 | 0.00 | 0.00 | 0.00 | 27 | 1006.1 |
| 20260504201925 | 22 | 279 | 3.2 | 12.9 | 0.00 | 0.00 | 0.00 | 26 | 1006.1 |
| 20260504201424 | 22 | 235 | 3.2 | 12.9 | 0.00 | 0.00 | 0.00 | 27 | 1006.3 |
| 20260504200924 | 22 | 248 | 4.8 | 12.9 | 0.00 | 0.00 | 0.00 | 27 | 1006.3 |
| 20260504200425 | 22 | 279 | 4.8 | 14.5 | 0.00 | 0.00 | 0.00 | 26 | 1006.3 |
| 20260504195926 | 22 | 228 | 6.4 | 14.5 | 0.00 | 0.00 | 0.00 | 26 | 1006.4 |
| 20260504195922 | 22 | 230 | 4.8 | 11.3 | 0.00 | 0.00 | 0.00 | 26 | 1006.3 |
| 20260504194923 | 22 | 268 | 4.8 | 11.3 | 0.00 | 0.00 | 0.00 | 26 | 1006.5 |
| 20260504194420 | 22 | 251 | 4.8 | 11.3 | 0.00 | 0.00 | 0.00 | 26 | 1006.4 |
| 20260504193920 | 22 | 241 | 4.8 | 16.1 | 0.00 | 0.00 | 0.00 | 26 | 1006.4 |
| 20260504193651 | 22 | 237 | 6.4 | 16.1 | 0.00 | 0.00 | 0.00 | 26 | 1006.4 |
| 20260504192920 | 22 | 246 | 4.8 | 14.5 | 0.00 | 0.00 | 0.00 | 26 | 1006.2 |
| 20260504192420 | 21 | 256 | 4.8 | 14.5 | 0.00 | 0.00 | 0.00 | 27 | 1006.2 |
| 20260504191914 | 21 | 249 | 6.4 | 22.5 | 0.00 | 0.00 | 0.00 | 26 | 1006.4 |
| 20260504191403 | 21 | 213 | 6.4 | 22.5 | 0.00 | 0.00 | 0.00 | 26 | 1006.5 |
| 20260504190902 | 21 | 241 | 6.4 | 17.7 | 0.00 | 0.00 | 0.00 | 26 | 1006.4 |
| 20260504190402 | 21 | 200 | 4.8 | 17.7 | 0.00 | 0.00 | 0.00 | 26 | 1006.5 |
| 20260504185903 | 21 | 299 | 4.8 | 12.9 | 0.00 | 0.00 | 0.00 | 27 | 1006.7 |
| 20260504185633 | 21 | 233 | 4.8 | 16.1 | 0.00 | 0.00 | 0.00 | 26 | 1006.7 |
| 20260504185134 | 21 | 251 | 4.8 | 16.1 | 0.00 | 0.00 | 0.00 | 26 | 1006.6 |
| 20260504184634 | 21 | 218 | 4.8 | 24.1 | 0.00 | 0.00 | 0.00 | 27 | 1006.6 |
| 20260504183900 | 21 | 279 | 6.4 | 24.1 | 0.00 | 0.00 | 0.00 | 26 | 1006.7 |
| 20260504183344 | 21 | 212 | 6.4 | 17.7 | 0.00 | 0.00 | 0.00 | 27 | 1006.7 |
| 20260504182835 | 21 | 211 | 6.4 | 17.7 | 0.00 | 0.00 | 0.00 | 28 | 1006.7 |
| 20260504182319 | 21 | 245 | 4.8 | 17.7 | 0.00 | 0.00 | 0.00 | 28 | 1006.9 |
| 20260504181819 | 21 | 185 | 6.4 | 17.7 | 0.00 | 0.00 | 0.00 | 28 | 1006.9 |
| 20260504181314 | 20 | 203 | 9.7 | 32.2 | 0.00 | 0.00 | 0.00 | 28 | 1006.9 |
| 20260504180814 | 20 | 233 | 9.7 | 32.2 | 0.00 | 0.00 | 0.00 | 28 | 1006.9 |
| 20260504180315 | 20 | 212 | 8.0 | 20.9 | 0.00 | 0.00 | 0.00 | 28 | 1006.9 |
| 20260504175815 | 20 | 243 | 8.0 | 20.9 | 0.00 | 0.00 | 0.00 | 28 | 1007.1 |
| 20260504175312 | 20 | 241 | 8.0 | 19.3 | 0.00 | 0.00 | 0.00 | 30 | 1007.0 |
| 20260504174811 | 20 | 236 | 8.0 | 17.7 | 0.00 | 0.00 | 0.00 | 28 | 1007.1 |
| 20260504174541 | 20 | 216 | 6.4 | 17.7 | 0.00 | 0.00 | 0.00 | 29 | 1007.2 |
| 20260504174041 | 20 | 197 | 6.4 | 17.7 | 0.00 | 0.00 | 0.00 | 29 | 1007.2 |
| 20260504173310 | 20 | 243 | 6.4 | 17.7 | 0.00 | 0.00 | 0.00 | 28 | 1007.2 |
| 20260504172810 | 20 | 207 | 6.4 | 16.1 | 0.00 | 0.00 | 0.00 | 27 | 1007.2 |
| 20260504172305 | 20 | 218 | 6.4 | 20.9 | 0.00 | 0.00 | 0.00 | 30 | 1007.3 |
| 20260504171800 | 20 | 258 | 8.0 | 20.9 | 0.00 | 0.00 | 0.00 | 28 | 1007.2 |
| 20260504171258 | 20 | 239 | 6.4 | 16.1 | 0.00 | 0.00 | 0.00 | 28 | 1007.3 |
| 20260504170756 | 20 | 204 | 4.8 | 12.9 | 0.00 | 0.00 | 0.00 | 29 | 1007.2 |
| 20260504170256 | 20 | 235 | 6.4 | 22.5 | 0.00 | 0.00 | 0.00 | 30 | 1007.3 |
| 20260504160238 | 19 | 228 | 6.4 | 19.3 | 0.00 | 0.00 | 0.00 | 31 | 1008.0 |
| 20260504160234 | 18 | 233 | 6.4 | 17.7 | 0.00 | 0.00 | 0.00 | 31 | 1007.9 |
| 20260504150959 | 18 | 279 | 6.4 | 16.1 | 0.00 | 0.00 | 0.00 | 33 | 1008.5 |
| 20260504150228 | 18 | 234 | 4.8 | 16.1 | 0.00 | 0.00 | 0.00 | 33 | 1008.5 |
| 20260504141136 | 16 | 211 | 4.8 | 16.1 | 0.00 | 0.00 | 0.00 | 39 | 1008.9 |
| 20260504140641 | 16 | 212 | 4.8 | 11.3 | 0.00 | 0.00 | 0.00 | 39 | 1009.1 |
| 20260504140636 | 16 | 223 | 4.8 | 16.1 | 0.00 | 0.00 | 0.00 | 38 | 1009.0 |
| 20260504130616 | 14 | 222 | 3.2 | 11.3 | 0.00 | 0.00 | 0.00 | 43 | 1009.8 |
| 20260504130116 | 14 | 216 | 3.2 | 11.3 | 0.00 | 0.00 | 0.00 | 43 | 1009.8 |
| 20260504110517 | 7 | 203 | 1.6 | 4.8 | 0.00 | 0.00 | 0.00 | 58 | 1010.1 |
| 20260504100359 | 8 | 207 | 0.0 | 1.6 | 0.00 | 0.00 | 0.00 | 56 | 1010.1 |
| 20260504081827 | 8 | 241 | 1.6 | 3.2 | 0.00 | 0.00 | 0.00 | 55 | 1009.9 |
| 20260504081330 | 7 | 241 | 1.6 | 4.8 | 0.00 | 0.00 | 0.00 | 55 | 1009.9 |
| 20260504081058 | 7 | 241 | 0.0 | 4.8 | 0.00 | 0.00 | 0.00 | 55 | 1010.0 |
| 20260504080327 | 7 | 242 | 0.0 | 3.2 | 0.00 | 0.00 | 0.00 | 56 | 1010.0 |
| 20260504070316 | 7 | 247 | 0.0 | 3.2 | 0.00 | 0.00 | 0.00 | 58 | 1009.9 |
| 20260504060235 | 6 | 324 | 0.0 | 0.0 | 0.00 | 0.00 | 0.00 | 55 | 1009.8 |
| 20260504050215 | 6 | 212 | 0.0 | 0.0 | 0.00 | 0.00 | 0.00 | 58 | 1009.8 |
| 20260504045946 | 6 | 212 | 0.0 | 1.6 | 0.00 | 0.00 | 0.00 | 59 | 1009.8 |